星链-31619 (STARLINK-31619 )

导读

STARLINK-31619是美国太空探索技术公司Starlink星链互联网卫星星座的一员,于美国东部时间2024年4月17日发射,旨在为全球提供高速低延迟的宽带互联网服务。星链卫星通常运行在近地轨道,该卫星入轨后将参与组网,进一步拓展星链星座的全球覆盖能力。

基本信息
目录编号:
59531
目录名称:
STARLINK-31619
国际标识:
2024-073W
轨道中心:
EARTH
卫星名称:
星链-31619
卫星全名:
星链-31619 (STARLINK-31619 )
卫星状态:
在轨 (已飞行788 天)
发射日期:
2024-04-17 UTC
国别 :
美国 (US)
星等 :
--
轨道信息
数据来源 国际轨道数据 AOE轨道数据
星历时间 2026-06-13T12:41:46+0800
1天前
查看轨道信息
2026-06-14T02:00:00+0800
17小时前
查看轨道信息
半长轴 6861.161km 6861.149km
偏心率 0.0001559 0.0001844
轨道倾角 43.007° 42.996°
近地点辐角 269.823° 199.490°
升交点赤经 138.513° 135.382°
平近点角 90.245° 332.546°
近地点 481.954km 481.746km
远地点 484.094km 484.278km
周期 94.266分钟 94.266分钟
每日圈数 15.275886 15.275927
详细信息
固有亮度:
5
最大亮度:
1.5
卫星平台:
Starlink v2.0 mini
覆盖范围:
全球
运营商:
太空探索技术公司
运营商所在国:
美国
制造商(研发单位):
太空探索技术公司
制造商所在国:
美国
使用方式:
暂无
卫星简介
星链(Starlink)计划是由太空探索技术公司(SpaceX)提出的一个巨型低轨卫星互联网星座项目,计划在2019年至2024年间在太空搭建由约1.2万颗卫星组成的“星链”网络,其中1584颗将部署在地球上空550千米处的近地轨道,并从2020年开始工作。该卫星仍在工作。
2D轨道图
3D轨道图
轨道高度分析图
轨道倾角分析图
轨道综合分析图
查看轨道综合分析图